AXM123 ZGSZ-WMKK

Flight info

Callsign AXM123
Flight time 3h 32m
Altitude 36000
Route SIERA1 SIERA DCT ALLEY V32 EPDOS L642 EPKAL/K0857F360 L642 CN M765 BITOD/N0459F360 M765 IGARI R208 VKR Y346 PULIP PULIP3J
Aircraft A20N/M-SDE2E3FGHIRWXY/LB1

Departure

Time 2026-05-04 09:01
Airport Shenzhen Bao'an International Airport (ZGSZ)

Arrival

Time 2026-05-04 12:34
Airport Kuala Lumpur International Airport (WMKK)
Time Latitude Longitude Altitude Speed Heading
2026-05-04 08:33 22.62795 113.80518 21 ft 0 kts 133°
2026-05-04 08:53 22.62800 113.80513 21 ft 2 kts 133°
2026-05-04 08:54 22.62885 113.80464 21 ft 2 kts 215°
2026-05-04 08:55 22.62896 113.80475 21 ft 2 kts 224°
2026-05-04 08:55 22.62904 113.80482 21 ft 0 kts 220°
2026-05-04 08:57 22.62766 113.80345 21 ft 16 kts 224°
2026-05-04 09:01 22.63738 113.79417 22 ft 148 kts 331°
2026-05-04 09:01 22.64776 113.78838 240 ft 176 kts 335°
2026-05-04 09:01 22.65861 113.78252 890 ft 174 kts 338°
2026-05-04 09:01 22.66935 113.77508 1296 ft 197 kts 320°
2026-05-04 09:02 22.67921 113.76387 1868 ft 208 kts 314°
2026-05-04 09:02 22.68880 113.75223 2470 ft 210 kts 314°
2026-05-04 09:02 22.69955 113.74022 2732 ft 231 kts 317°
2026-05-04 09:02 22.71138 113.72751 3189 ft 244 kts 317°
2026-05-04 09:03 22.72411 113.71487 3773 ft 253 kts 319°
2026-05-04 09:03 22.73747 113.70226 4523 ft 254 kts 318°
2026-05-04 09:03 22.75061 113.68971 5331 ft 252 kts 316°
2026-05-04 09:03 22.76343 113.67693 6119 ft 250 kts 309°
2026-05-04 09:04 22.77118 113.66044 6858 ft 245 kts 276°
2026-05-04 09:04 22.76955 113.64267 7624 ft 243 kts 249°
2026-05-04 09:04 22.76176 113.62633 8315 ft 245 kts 243°
2026-05-04 09:04 22.75338 113.61025 8901 ft 250 kts 238°
2026-05-04 09:05 22.74008 113.59715 9233 ft 271 kts 209°
2026-05-04 09:05 22.72123 113.59254 9811 ft 287 kts 183°
2026-05-04 09:05 22.70127 113.59774 10431 ft 299 kts 164°
2026-05-04 09:05 22.68109 113.60438 10747 ft 306 kts 180°
2026-05-04 09:06 22.65969 113.60341 11054 ft 312 kts 193°
2026-05-04 09:07 22.48760 113.58602 13883 ft 371 kts 188°
2026-05-04 09:08 22.46147 113.58431 14387 ft 375 kts 188°
2026-05-04 09:08 22.43535 113.58263 14858 ft 377 kts 188°
2026-05-04 09:08 22.40898 113.58092 15345 ft 380 kts 188°
2026-05-04 09:08 22.38207 113.57922 15781 ft 384 kts 188°
2026-05-04 09:09 22.35524 113.57751 16150 ft 387 kts 188°
2026-05-04 09:09 22.32790 113.57577 16581 ft 390 kts 188°
2026-05-04 09:09 22.30068 113.57405 16995 ft 393 kts 188°
2026-05-04 09:09 22.27332 113.57232 17381 ft 396 kts 188°
2026-05-04 09:10 22.24550 113.57056 17773 ft 399 kts 188°
2026-05-04 09:10 22.21756 113.56879 18195 ft 401 kts 188°
2026-05-04 09:10 22.18943 113.56702 18605 ft 403 kts 188°
2026-05-04 09:10 22.16131 113.56526 18983 ft 405 kts 188°
2026-05-04 09:11 22.13307 113.56348 19362 ft 407 kts 188°
2026-05-04 09:11 22.10441 113.56168 19728 ft 410 kts 188°
2026-05-04 09:11 22.07575 113.55987 20096 ft 412 kts 188°
2026-05-04 09:11 22.04676 113.55806 20453 ft 414 kts 188°
2026-05-04 09:12 22.01788 113.55647 20807 ft 417 kts 185°
2026-05-04 09:12 21.98826 113.55720 21138 ft 422 kts 180°
2026-05-04 09:14 21.78117 113.60667 23373 ft 441 kts 171°
2026-05-04 09:14 21.75121 113.61446 23685 ft 442 kts 171°
2026-05-04 09:14 21.72127 113.62225 23995 ft 444 kts 171°
2026-05-04 09:14 21.69073 113.63017 24293 ft 446 kts 171°
2026-05-04 09:15 21.66079 113.63794 24586 ft 447 kts 171°
2026-05-04 09:15 21.63033 113.64583 24870 ft 449 kts 171°
2026-05-04 09:15 21.59992 113.65372 25143 ft 451 kts 171°
2026-05-04 09:15 21.56906 113.66170 25414 ft 452 kts 171°
2026-05-04 09:17 21.32091 113.72591 27663 ft 457 kts 171°
2026-05-04 09:18 21.29027 113.73383 27957 ft 456 kts 171°
2026-05-04 09:18 21.25935 113.74183 28277 ft 455 kts 171°
2026-05-04 09:18 21.22858 113.74976 28582 ft 455 kts 171°
2026-05-04 09:18 21.19767 113.75773 28886 ft 454 kts 171°
2026-05-04 09:19 21.16695 113.76565 29193 ft 454 kts 171°
2026-05-04 09:19 21.13608 113.77315 29502 ft 452 kts 173°
2026-05-04 09:19 21.10484 113.77833 29823 ft 448 kts 178°
2026-05-04 09:19 21.07381 113.78085 30147 ft 445 kts 182°
2026-05-04 09:20 21.04326 113.78082 30422 ft 442 kts 187°
2026-05-04 09:20 21.01257 113.77834 30701 ft 440 kts 190°
2026-05-04 09:20 20.98199 113.77495 30963 ft 440 kts 191°
2026-05-04 09:20 20.95137 113.77142 31214 ft 441 kts 191°
2026-05-04 09:21 20.92090 113.76793 31490 ft 441 kts 190°
2026-05-04 09:21 20.89016 113.76443 31759 ft 441 kts 191°
2026-05-04 09:21 20.85942 113.76098 31994 ft 441 kts 190°
2026-05-04 09:21 20.82850 113.75754 32255 ft 441 kts 191°
2026-05-04 09:22 20.79802 113.75414 32541 ft 440 kts 191°
2026-05-04 09:22 20.76735 113.75073 32829 ft 439 kts 191°
2026-05-04 09:22 20.73694 113.74734 33117 ft 437 kts 191°
2026-05-04 09:22 20.70697 113.74399 33384 ft 436 kts 191°
2026-05-04 09:23 20.67645 113.74058 33640 ft 435 kts 191°
2026-05-04 09:23 20.64640 113.73723 33887 ft 434 kts 191°
2026-05-04 09:23 20.61627 113.73387 34121 ft 434 kts 191°
2026-05-04 09:23 20.58634 113.73052 34370 ft 432 kts 191°
2026-05-04 09:25 20.37643 113.70712 35420 ft 434 kts 191°
2026-05-04 09:25 20.34634 113.70376 35516 ft 435 kts 191°
2026-05-04 09:26 20.31641 113.70044 35626 ft 435 kts 191°
2026-05-04 09:26 20.28601 113.69706 35717 ft 436 kts 191°
2026-05-04 09:26 20.22562 113.69036 35896 ft 437 kts 191°
2026-05-04 09:27 20.16481 113.68360 35947 ft 438 kts 191°
2026-05-04 09:27 20.10414 113.67687 35948 ft 439 kts 191°
2026-05-04 09:28 20.04340 113.67015 35945 ft 439 kts 191°
2026-05-04 09:28 19.98241 113.66340 35943 ft 438 kts 191°
2026-05-04 09:29 19.92141 113.65664 35943 ft 439 kts 191°
2026-05-04 09:29 19.86072 113.64997 35944 ft 439 kts 191°
2026-05-04 09:30 19.79954 113.64326 35945 ft 439 kts 191°
2026-05-04 09:30 19.73867 113.63657 35944 ft 439 kts 191°
2026-05-04 09:31 19.67777 113.62987 35947 ft 439 kts 191°
2026-05-04 09:31 19.61690 113.62315 35946 ft 438 kts 191°
2026-05-04 09:32 19.55609 113.61644 35948 ft 439 kts 191°
2026-05-04 09:34 19.31260 113.58970 35948 ft 438 kts 190°
2026-05-04 09:34 19.25184 113.58305 35947 ft 439 kts 190°
2026-05-04 09:35 19.19076 113.57635 35947 ft 439 kts 190°
2026-05-04 09:35 19.12992 113.56969 35946 ft 439 kts 190°
2026-05-04 09:37 18.88696 113.53943 35944 ft 439 kts 192°
2026-05-04 09:38 18.82624 113.53070 35944 ft 439 kts 192°
2026-05-04 09:38 18.76551 113.52202 35941 ft 439 kts 192°
2026-05-04 09:39 18.70494 113.51337 35941 ft 439 kts 192°
2026-05-04 09:39 18.64437 113.50456 35936 ft 438 kts 194°
2026-05-04 09:40 18.58530 113.48942 35938 ft 436 kts 202°
2026-05-04 09:40 18.52923 113.46481 35938 ft 436 kts 211°
2026-05-04 09:42 18.33179 113.31881 35932 ft 434 kts 219°
2026-05-04 09:43 18.28310 113.28110 35931 ft 434 kts 219°
2026-05-04 09:43 18.23429 113.24348 35929 ft 434 kts 219°
2026-05-04 09:44 18.18554 113.20598 35929 ft 435 kts 219°
2026-05-04 09:46 17.98963 113.05572 35905 ft 435 kts 219°
2026-05-04 09:46 17.94079 113.01834 35910 ft 436 kts 219°
2026-05-04 09:47 17.89143 112.98061 35918 ft 436 kts 219°
2026-05-04 09:49 17.69660 112.82842 35921 ft 436 kts 220°
2026-05-04 09:51 17.52628 112.69477 35915 ft 437 kts 220°
2026-05-04 09:51 17.47754 112.65659 35914 ft 437 kts 219°
2026-05-04 09:52 17.42880 112.61843 35914 ft 437 kts 219°
2026-05-04 09:52 17.37974 112.58004 35912 ft 437 kts 219°
2026-05-04 09:53 17.33093 112.54190 35912 ft 437 kts 220°
2026-05-04 09:53 17.28237 112.50395 35911 ft 437 kts 219°
2026-05-04 09:54 17.23351 112.46581 35909 ft 438 kts 220°
2026-05-04 09:54 17.18438 112.42748 35910 ft 438 kts 220°
2026-05-04 09:55 17.13556 112.38940 35908 ft 439 kts 220°
2026-05-04 09:55 17.08645 112.35113 35905 ft 438 kts 219°
2026-05-04 09:56 17.03771 112.31298 35906 ft 439 kts 219°
2026-05-04 09:56 16.98846 112.27463 35904 ft 440 kts 219°
2026-05-04 09:57 16.93905 112.23700 35912 ft 439 kts 219°
2026-05-04 09:57 16.88966 112.19958 35917 ft 439 kts 219°
2026-05-04 09:58 16.83990 112.16209 35919 ft 439 kts 218°
2026-05-04 09:58 16.79033 112.12468 35919 ft 440 kts 219°
2026-05-04 10:00 16.59163 111.97450 35914 ft 440 kts 219°
2026-05-04 10:04 16.24386 111.71244 35899 ft 440 kts 219°
2026-05-04 10:04 16.19407 111.67501 35898 ft 440 kts 219°
2026-05-04 10:05 16.14448 111.63776 35897 ft 440 kts 219°
2026-05-04 10:05 16.09476 111.60043 35900 ft 440 kts 219°
2026-05-04 10:06 16.04515 111.56322 35900 ft 440 kts 219°
2026-05-04 10:06 15.99533 111.52587 35903 ft 440 kts 219°
2026-05-04 10:08 15.82132 111.39590 35901 ft 439 kts 218°
2026-05-04 10:08 15.77164 111.35884 35901 ft 439 kts 219°
2026-05-04 10:09 15.72210 111.32168 35899 ft 439 kts 218°
2026-05-04 10:09 15.67253 111.28444 35896 ft 439 kts 218°
2026-05-04 10:10 15.62277 111.24723 35904 ft 439 kts 218°
2026-05-04 10:10 15.57344 111.21043 35903 ft 439 kts 218°
2026-05-04 10:11 15.52373 111.17339 35904 ft 439 kts 218°
2026-05-04 10:11 15.47405 111.13639 35905 ft 438 kts 218°
2026-05-04 10:12 15.42448 111.09952 35902 ft 438 kts 218°
2026-05-04 10:12 15.37496 111.06269 35903 ft 438 kts 218°
2026-05-04 10:13 15.32562 111.02559 35904 ft 438 kts 219°
2026-05-04 10:13 15.27634 110.98798 35902 ft 438 kts 219°
2026-05-04 10:14 15.22713 110.95051 35903 ft 438 kts 219°
2026-05-04 10:16 15.03036 110.80120 35900 ft 438 kts 219°
2026-05-04 10:16 14.98116 110.76391 35900 ft 438 kts 219°
2026-05-04 10:17 14.93191 110.72663 35900 ft 438 kts 219°
2026-05-04 10:19 14.73452 110.57785 35883 ft 438 kts 219°
2026-05-04 10:19 14.68529 110.54069 35883 ft 438 kts 219°
2026-05-04 10:20 14.63600 110.50349 35884 ft 438 kts 219°
2026-05-04 10:20 14.58658 110.46622 35883 ft 438 kts 218°
2026-05-04 10:21 14.53739 110.42917 35884 ft 438 kts 219°
2026-05-04 10:21 14.48807 110.39201 35885 ft 438 kts 219°
2026-05-04 10:22 14.41413 110.33631 35890 ft 438 kts 218°
2026-05-04 10:23 14.36490 110.29900 35888 ft 438 kts 218°
2026-05-04 10:25 14.16779 110.15081 35887 ft 438 kts 218°
2026-05-04 10:25 14.11839 110.11377 35884 ft 438 kts 218°
2026-05-04 10:26 14.06907 110.07684 35887 ft 438 kts 218°
2026-05-04 10:26 14.01981 110.03998 35884 ft 438 kts 218°
2026-05-04 10:27 13.97015 110.00307 35890 ft 438 kts 216°
2026-05-04 10:27 13.91875 109.96918 35898 ft 437 kts 214°
2026-05-04 10:28 13.86695 109.93590 35903 ft 437 kts 214°
2026-05-04 10:28 13.81522 109.90280 35900 ft 437 kts 214°
2026-05-04 10:29 13.76362 109.86970 35899 ft 436 kts 214°
2026-05-04 10:29 13.71207 109.83660 35896 ft 437 kts 214°
2026-05-04 10:30 13.66038 109.80341 35900 ft 436 kts 214°
2026-05-04 10:30 13.60883 109.77031 35902 ft 436 kts 214°
2026-05-04 10:31 13.55725 109.73721 35903 ft 436 kts 214°
2026-05-04 10:32 13.37717 109.62178 35904 ft 435 kts 214°
2026-05-04 10:33 13.32561 109.58877 35904 ft 435 kts 214°
2026-05-04 10:33 13.27402 109.55574 35903 ft 435 kts 214°
2026-05-04 10:34 13.22264 109.52288 35906 ft 435 kts 214°
2026-05-04 10:34 13.17131 109.49007 35905 ft 434 kts 214°
2026-05-04 10:35 13.11974 109.45712 35904 ft 434 kts 214°
2026-05-04 10:35 13.06864 109.42448 35907 ft 434 kts 214°
2026-05-04 10:36 13.01739 109.39177 35907 ft 433 kts 214°
2026-05-04 10:36 12.96594 109.35893 35903 ft 433 kts 214°
2026-05-04 10:37 12.91485 109.32621 35902 ft 433 kts 214°
2026-05-04 10:37 12.86352 109.29336 35907 ft 434 kts 214°
2026-05-04 10:39 12.68379 109.17913 35939 ft 434 kts 214°
2026-05-04 10:40 12.63211 109.14626 35944 ft 434 kts 214°
2026-05-04 10:40 12.58061 109.11350 35937 ft 435 kts 214°
2026-05-04 10:41 12.52925 109.08087 35926 ft 435 kts 214°
2026-05-04 10:41 12.47760 109.04809 35913 ft 436 kts 213°
2026-05-04 10:42 12.42600 109.01538 35909 ft 436 kts 213°
2026-05-04 10:42 12.37417 108.98252 35912 ft 437 kts 213°
2026-05-04 10:43 12.32228 108.94965 35932 ft 437 kts 213°
2026-05-04 10:45 12.11532 108.81868 36012 ft 437 kts 213°
2026-05-04 10:45 12.06299 108.78561 36015 ft 438 kts 213°
2026-05-04 10:46 12.01115 108.75288 36020 ft 438 kts 213°
2026-05-04 10:46 11.95932 108.72016 36022 ft 438 kts 213°
2026-05-04 10:47 11.90719 108.68728 36017 ft 438 kts 213°
2026-05-04 10:47 11.85511 108.65456 36014 ft 439 kts 213°
2026-05-04 10:49 11.64666 108.52335 36010 ft 440 kts 213°
2026-05-04 10:50 11.59426 108.49039 36004 ft 440 kts 213°
2026-05-04 10:52 11.38513 108.35886 35922 ft 443 kts 213°
2026-05-04 10:52 11.33229 108.32552 35907 ft 444 kts 212°
2026-05-04 10:54 11.12150 108.19303 35882 ft 443 kts 212°
2026-05-04 10:56 10.91134 108.06126 35877 ft 441 kts 213°
2026-05-04 10:57 10.85970 108.02688 35878 ft 442 kts 213°
2026-05-04 10:57 10.80839 107.99270 35879 ft 442 kts 213°
2026-05-04 10:58 10.75660 107.95828 35883 ft 443 kts 213°
2026-05-04 10:58 10.70507 107.92408 35877 ft 443 kts 213°
2026-05-04 10:59 10.65303 107.88955 35877 ft 442 kts 213°
2026-05-04 10:59 10.60127 107.85523 35874 ft 442 kts 213°
2026-05-04 11:00 10.54976 107.82109 35864 ft 444 kts 213°
2026-05-04 11:02 10.34136 107.68336 35859 ft 446 kts 213°
2026-05-04 11:05 9.94866 107.42453 35849 ft 449 kts 212°
2026-05-04 11:06 9.89603 107.38984 35845 ft 448 kts 212°
2026-05-04 11:06 9.84341 107.35535 35843 ft 448 kts 212°
2026-05-04 11:10 9.47717 107.11410 35842 ft 447 kts 212°
2026-05-04 11:12 9.26783 106.97670 35851 ft 446 kts 212°
2026-05-04 11:12 9.21562 106.94248 35854 ft 445 kts 212°
2026-05-04 11:13 9.16341 106.90826 35855 ft 445 kts 212°
2026-05-04 11:13 9.11158 106.87428 35857 ft 445 kts 212°
2026-05-04 11:14 9.05934 106.84008 35862 ft 445 kts 212°
2026-05-04 11:16 8.85053 106.70363 35859 ft 445 kts 211°
2026-05-04 11:16 8.79872 106.66936 35855 ft 447 kts 214°
2026-05-04 11:17 8.75077 106.62923 35855 ft 448 kts 223°
2026-05-04 11:19 8.62759 106.44682 35847 ft 451 kts 239°
2026-05-04 11:19 8.61177 106.41964 35842 ft 451 kts 239°
2026-05-04 11:19 8.57994 106.36509 35842 ft 451 kts 238°
2026-05-04 11:20 8.54798 106.31025 35840 ft 451 kts 238°
2026-05-04 11:20 8.51634 106.25590 35842 ft 451 kts 238°
2026-05-04 11:22 8.38855 106.03766 35842 ft 451 kts 238°
2026-05-04 11:23 8.35675 105.98343 35843 ft 451 kts 238°
2026-05-04 11:25 8.24474 105.79262 35843 ft 451 kts 238°
2026-05-04 11:25 8.21274 105.73815 35842 ft 450 kts 238°
2026-05-04 11:27 8.06891 105.49368 35853 ft 452 kts 238°
2026-05-04 11:28 8.03670 105.43905 35853 ft 451 kts 238°
2026-05-04 11:28 8.00471 105.38477 35852 ft 451 kts 238°
2026-05-04 11:29 7.97276 105.33034 35848 ft 450 kts 238°
2026-05-04 11:29 7.94104 105.27600 35847 ft 450 kts 238°
2026-05-04 11:33 7.71652 104.89558 35842 ft 452 kts 238°
2026-05-04 11:33 7.68432 104.84106 35843 ft 452 kts 238°
2026-05-04 11:34 7.65221 104.78668 35842 ft 452 kts 238°
2026-05-04 11:34 7.62018 104.73241 35843 ft 453 kts 238°
2026-05-04 11:35 7.58801 104.67796 35842 ft 453 kts 238°
2026-05-04 11:35 7.55570 104.62328 35841 ft 452 kts 238°
2026-05-04 11:36 7.52344 104.56870 35843 ft 453 kts 238°
2026-05-04 11:36 7.49112 104.51406 35842 ft 453 kts 238°
2026-05-04 11:37 7.45902 104.45981 35843 ft 453 kts 238°
2026-05-04 11:37 7.42675 104.40528 35843 ft 453 kts 238°
2026-05-04 11:38 7.39446 104.35076 35843 ft 453 kts 238°
2026-05-04 11:38 7.36235 104.29630 35843 ft 453 kts 238°
2026-05-04 11:39 7.32989 104.24136 35843 ft 453 kts 238°
2026-05-04 11:41 7.21666 104.05090 35863 ft 453 kts 238°
2026-05-04 11:41 7.18414 103.99664 35863 ft 453 kts 238°
2026-05-04 11:42 7.15148 103.94218 35861 ft 453 kts 238°
2026-05-04 11:42 7.11896 103.88800 35856 ft 453 kts 238°
2026-05-04 11:43 7.08636 103.83370 35849 ft 453 kts 238°
2026-05-04 11:43 7.05384 103.77956 35844 ft 453 kts 238°
2026-05-04 11:44 7.02123 103.72533 35843 ft 453 kts 238°
2026-05-04 11:44 6.98851 103.67089 35843 ft 453 kts 238°
2026-05-04 11:45 6.95041 103.62103 35843 ft 451 kts 224°
2026-05-04 11:45 6.90143 103.58202 35842 ft 448 kts 210°
2026-05-04 11:46 6.84439 103.55617 35841 ft 446 kts 196°
2026-05-04 11:46 6.78503 103.53814 35841 ft 446 kts 195°
2026-05-04 11:47 6.72535 103.52023 35842 ft 446 kts 195°
2026-05-04 11:47 6.66560 103.50209 35842 ft 446 kts 195°
2026-05-04 11:48 6.60600 103.48389 35842 ft 446 kts 195°
2026-05-04 11:48 6.54648 103.46571 35842 ft 446 kts 195°
2026-05-04 11:49 6.48693 103.44750 35842 ft 446 kts 195°
2026-05-04 11:49 6.42723 103.42924 35842 ft 446 kts 195°
2026-05-04 11:50 6.36774 103.41103 35842 ft 446 kts 195°
2026-05-04 11:50 6.30803 103.39279 35842 ft 446 kts 195°
2026-05-04 11:51 6.24845 103.37459 35842 ft 445 kts 195°
2026-05-04 11:51 6.18907 103.35644 35842 ft 445 kts 195°
2026-05-04 11:52 6.12962 103.33815 35842 ft 445 kts 196°
2026-05-04 11:52 6.07036 103.31980 35842 ft 445 kts 195°
2026-05-04 11:53 6.01060 103.30148 35842 ft 446 kts 195°
2026-05-04 11:53 5.95087 103.28326 35846 ft 446 kts 195°
2026-05-04 11:55 5.71356 103.20891 35866 ft 447 kts 199°
2026-05-04 11:56 5.65490 103.18767 35866 ft 447 kts 199°
2026-05-04 11:56 5.59625 103.16650 35862 ft 448 kts 198°
2026-05-04 11:57 5.53714 103.14521 35857 ft 448 kts 198°
2026-05-04 11:57 5.47837 103.12405 35855 ft 449 kts 198°
2026-05-04 11:58 5.42049 103.10000 35851 ft 449 kts 208°
2026-05-04 11:58 5.37092 103.06210 35854 ft 451 kts 225°
2026-05-04 11:59 5.33335 103.01130 35859 ft 453 kts 242°
2026-05-04 11:59 5.30834 102.95344 35864 ft 455 kts 248°
2026-05-04 12:00 5.28487 102.89413 35868 ft 455 kts 248°
2026-05-04 12:00 5.26122 102.83544 35874 ft 456 kts 248°
2026-05-04 12:01 5.23686 102.77634 35881 ft 455 kts 244°
2026-05-04 12:02 5.07739 102.63014 35908 ft 453 kts 206°
2026-05-04 12:03 5.02094 102.60109 35911 ft 453 kts 207°
2026-05-04 12:03 4.96508 102.57187 35913 ft 454 kts 207°
2026-05-04 12:04 4.90908 102.54242 35914 ft 455 kts 207°
2026-05-04 12:04 4.85264 102.51292 35911 ft 454 kts 207°
2026-05-04 12:05 4.79674 102.48376 35904 ft 454 kts 207°
2026-05-04 12:05 4.74062 102.45443 35900 ft 454 kts 207°
2026-05-04 12:06 4.68417 102.42490 35900 ft 455 kts 207°
2026-05-04 12:06 4.62766 102.39534 35905 ft 455 kts 207°
2026-05-04 12:07 4.57086 102.36563 35914 ft 457 kts 207°
2026-05-04 12:07 4.51411 102.33587 35930 ft 457 kts 207°
2026-05-04 12:08 4.45796 102.30621 35943 ft 456 kts 207°
2026-05-04 12:08 4.40167 102.27666 35935 ft 456 kts 207°
2026-05-04 12:09 4.34516 102.24709 35917 ft 456 kts 207°
2026-05-04 12:09 4.28855 102.21749 35820 ft 457 kts 207°
2026-05-04 12:10 4.26027 102.20271 35512 ft 455 kts 207°
2026-05-04 12:10 4.23241 102.18815 35221 ft 453 kts 207°
2026-05-04 12:10 4.20431 102.17348 34926 ft 451 kts 207°
2026-05-04 12:10 4.17651 102.15897 34635 ft 449 kts 207°
2026-05-04 12:11 4.14884 102.14452 34347 ft 449 kts 207°
2026-05-04 12:11 4.12105 102.13001 34055 ft 450 kts 207°
2026-05-04 12:11 4.09291 102.11532 33761 ft 452 kts 207°
2026-05-04 12:11 4.06526 102.10088 33477 ft 453 kts 207°
2026-05-04 12:12 4.03715 102.08621 33167 ft 454 kts 207°
2026-05-04 12:12 4.00905 102.07153 32760 ft 456 kts 207°
2026-05-04 12:12 3.98074 102.05675 32202 ft 458 kts 207°
2026-05-04 12:12 3.95245 102.04200 31547 ft 460 kts 207°
2026-05-04 12:13 3.92364 102.02697 30806 ft 462 kts 206°
2026-05-04 12:14 3.71966 101.92083 25242 ft 476 kts 206°
2026-05-04 12:15 3.68961 101.90720 24444 ft 474 kts 198°
2026-05-04 12:15 3.65796 101.89841 23941 ft 464 kts 189°
2026-05-04 12:15 3.62620 101.89448 23516 ft 454 kts 182°
2026-05-04 12:15 3.59468 101.89306 23011 ft 449 kts 180°
2026-05-04 12:16 3.56346 101.89211 22497 ft 444 kts 180°
2026-05-04 12:16 3.53258 101.89121 21995 ft 440 kts 180°
2026-05-04 12:16 3.50198 101.89029 21488 ft 436 kts 180°
2026-05-04 12:16 3.47155 101.88932 20971 ft 432 kts 180°
2026-05-04 12:17 3.44157 101.88833 20462 ft 429 kts 180°
2026-05-04 12:17 3.41192 101.88734 19947 ft 426 kts 180°
2026-05-04 12:17 3.38237 101.88635 19434 ft 423 kts 180°
2026-05-04 12:17 3.35283 101.88534 18916 ft 420 kts 180°
2026-05-04 12:18 3.32379 101.88435 18404 ft 417 kts 180°
2026-05-04 12:18 3.29476 101.88336 17886 ft 414 kts 180°
2026-05-04 12:18 3.26615 101.88238 17378 ft 411 kts 180°
2026-05-04 12:18 3.23731 101.88142 16859 ft 409 kts 180°
2026-05-04 12:19 3.20881 101.88045 16339 ft 406 kts 180°
2026-05-04 12:19 3.18074 101.87951 15827 ft 404 kts 180°
2026-05-04 12:19 3.15252 101.87855 15308 ft 401 kts 180°
2026-05-04 12:19 3.12448 101.87758 14792 ft 399 kts 180°
2026-05-04 12:20 3.09675 101.87664 14282 ft 396 kts 180°
2026-05-04 12:20 3.06934 101.87571 13769 ft 393 kts 180°
2026-05-04 12:20 3.04181 101.87479 13260 ft 391 kts 180°
2026-05-04 12:20 3.01469 101.87386 12754 ft 389 kts 180°
2026-05-04 12:21 2.98737 101.87296 12216 ft 387 kts 180°
2026-05-04 12:21 2.96044 101.87206 11690 ft 385 kts 181°
2026-05-04 12:21 2.93360 101.87114 11185 ft 383 kts 181°
2026-05-04 12:21 2.90656 101.87020 10674 ft 381 kts 181°
2026-05-04 12:22 2.88038 101.86938 10490 ft 367 kts 179°
2026-05-04 12:22 2.85530 101.87112 10384 ft 351 kts 170°
2026-05-04 12:22 2.83192 101.87631 10275 ft 337 kts 163°
2026-05-04 12:22 2.80935 101.88301 10112 ft 325 kts 161°
2026-05-04 12:23 2.78805 101.88966 9984 ft 312 kts 161°
2026-05-04 12:23 2.76766 101.89603 9866 ft 300 kts 161°
2026-05-04 12:23 2.74757 101.90228 9507 ft 298 kts 161°
2026-05-04 12:23 2.72768 101.90843 9175 ft 296 kts 161°
2026-05-04 12:24 2.70809 101.91447 8846 ft 294 kts 161°
2026-05-04 12:24 2.68852 101.92046 8535 ft 291 kts 161°
2026-05-04 12:24 2.66894 101.92648 8212 ft 289 kts 161°
2026-05-04 12:24 2.64986 101.93233 7897 ft 287 kts 161°
2026-05-04 12:25 2.63073 101.93819 7587 ft 285 kts 162°
2026-05-04 12:25 2.61178 101.94398 7277 ft 282 kts 162°
2026-05-04 12:25 2.59287 101.94977 6973 ft 280 kts 162°
2026-05-04 12:25 2.57416 101.95548 6666 ft 278 kts 162°
2026-05-04 12:26 2.55563 101.96110 6359 ft 276 kts 163°
2026-05-04 12:26 2.53654 101.96278 6012 ft 277 kts 192°
2026-05-04 12:26 2.51934 101.95445 5711 ft 273 kts 223°
2026-05-04 12:26 2.50766 101.93958 5435 ft 269 kts 238°
2026-05-04 12:27 2.49757 101.92378 5145 ft 268 kts 238°
2026-05-04 12:27 2.48752 101.90830 4862 ft 266 kts 237°
2026-05-04 12:27 2.47882 101.89203 4567 ft 262 kts 258°
2026-05-04 12:27 2.47942 101.87466 4460 ft 248 kts 291°
2026-05-04 12:28 2.48842 101.86039 4199 ft 242 kts 316°
2026-05-04 12:28 2.49997 101.84810 3970 ft 237 kts 310°
2026-05-04 12:28 2.51025 101.83528 3762 ft 232 kts 312°
2026-05-04 12:28 2.52152 101.82413 3565 ft 225 kts 321°
2026-05-04 12:29 2.53397 101.81478 3374 ft 218 kts 326°
2026-05-04 12:29 2.54650 101.80637 3204 ft 212 kts 327°
2026-05-04 12:29 2.55869 101.79832 3125 ft 200 kts 327°
2026-05-04 12:29 2.57013 101.79071 2918 ft 192 kts 327°
2026-05-04 12:30 2.58093 101.78347 2776 ft 181 kts 326°
2026-05-04 12:30 2.59110 101.77661 2653 ft 168 kts 327°
2026-05-04 12:30 2.60059 101.77021 2539 ft 160 kts 327°
2026-05-04 12:30 2.60988 101.76393 2352 ft 161 kts 327°
2026-05-04 12:31 2.61904 101.75776 2135 ft 154 kts 327°
2026-05-04 12:31 2.62776 101.75188 1913 ft 146 kts 327°
2026-05-04 12:31 2.63615 101.74621 1748 ft 146 kts 326°
2026-05-04 12:31 2.64464 101.74047 1556 ft 145 kts 326°
2026-05-04 12:32 2.65312 101.73478 1370 ft 145 kts 327°
2026-05-04 12:32 2.66992 101.72351 993 ft 144 kts 326°
2026-05-04 12:32 2.67824 101.71779 778 ft 144 kts 326°
2026-05-04 12:33 2.68662 101.71217 572 ft 144 kts 326°
2026-05-04 12:33 2.69496 101.70655 417 ft 144 kts 326°
2026-05-04 12:33 2.70329 101.70094 235 ft 143 kts 325°
2026-05-04 12:33 2.71160 101.69527 77 ft 141 kts 324°
2026-05-04 12:34 2.71815 101.69087 74 ft 72 kts 327°
2026-05-04 12:34 2.72076 101.68904 74 ft 38 kts 328°
2026-05-04 12:34 2.72295 101.68771 74 ft 34 kts 327°
2026-05-04 12:34 2.72492 101.68658 74 ft 31 kts 340°
2026-05-04 12:35 2.72699 101.68621 74 ft 28 kts 353°
2026-05-04 12:35 2.72884 101.68577 74 ft 26 kts 327°
2026-05-04 12:35 2.73034 101.68481 74 ft 24 kts 326°
2026-05-04 12:35 2.73175 101.68389 74 ft 23 kts 326°
2026-05-04 12:36 2.73310 101.68296 74 ft 22 kts 325°
2026-05-04 12:36 2.73438 101.68208 74 ft 21 kts 326°
2026-05-04 12:36 2.73564 101.68126 74 ft 21 kts 327°
2026-05-04 12:36 2.73647 101.68073 74 ft 1 kts 29°
2026-05-04 12:37 2.73667 101.68103 74 ft 13 kts 56°
2026-05-04 12:37 2.73718 101.68170 74 ft 5 kts 43°
2026-05-04 12:37 2.73755 101.68229 74 ft 13 kts 56°
2026-05-04 12:37 2.73821 101.68326 74 ft 19 kts 56°
2026-05-04 12:38 2.73905 101.68450 74 ft 15 kts 55°
2026-05-04 12:38 2.73915 101.68512 74 ft 7 kts 129°
2026-05-04 12:38 2.73885 101.68536 74 ft 4 kts 146°
2026-05-04 12:38 2.73862 101.68552 74 ft 3 kts 145°
2026-05-04 12:39 2.73839 101.68567 74 ft 2 kts 146°
2026-05-04 12:39 2.73839 101.68568 74 ft 0 kts 146°